This demonstration page uses our WeatherBlox Daily Observations layout. Learn more.

40.92945, -100.16068

Hourly Observations for September 26, 2020

Temp ( °F °C ) Dew Point ( °F °C ) Humidity (%) Winds ( mph kmh ) Pressure ( in mb ) Visibility ( mi km ) Precip ( " mm )
12:15 am 00:15 Clear 55 12.5 50 9.9 84 84 N 3 6 29.76 1008 10 16.0934 0 0
12:35 am 00:35 Clear 55 12.6 50 9.8 83 83 NE 3 6 29.75 1007 10 16.0934 0 0
12:55 am 00:55 Clear 54 12.1 50 9.9 87 87 N 3 6 29.74 1007 10 16.0934 0 0
1:15 am 01:15 Clear 53 11.6 49 9.3 86 86 NW 5 7 29.75 1007 10 16.0934 0 0
1:35 am 01:35 Clear 53 11.7 49 9.3 85 85 WNW 3 6 29.74 1007 10 16.0934 0 0
1:55 am 01:55 Clear 53 11.7 49 9.4 86 86 WNW 3 6 29.72 1006 10 16.0934 0 0
2:15 am 02:15 Clear 52 11.2 49 9.5 89 89 NW 6 9 29.72 1006 10 16.0934 0 0
2:35 am 02:35 Clear 52 10.9 48 9.1 89 89 WNW 5 7 29.71 1006 10 16.0934 0 0
2:55 am 02:55 Clear 51 10.7 48 8.9 89 89 Calm 29.7 1006 10 16.0934 0 0
3:15 am 03:15 Clear 51 10.5 48 9 91 91 Calm 29.7 1006 10 16.0934 0 0
3:35 am 03:35 Clear 51 10.8 48 8.9 88 88 Calm 29.68 1005 10 16.0934 0 0
3:55 am 03:55 Clear 52 11 49 9.2 89 89 WNW 3 6 29.68 1005 10 16.0934 0 0
4:15 am 04:15 Clear 51 10.6 48 9.1 91 91 WNW 6 9 29.69 1005 10 16.0934 0 0
4:35 am 04:35 Clear 52 11.3 49 9.5 89 89 W 3 6 29.67 1005 10 16.0934 0 0
4:55 am 04:55 Clear 52 11.1 49 9.5 90 90 WNW 5 7 29.67 1005 10 16.0934 0 0
5:15 am 05:15 Clear 52 11.1 49 9.5 90 90 WNW 3 6 29.66 1004 10 16.0934 0 0
5:35 am 05:35 Clear 53 11.5 49 9.7 89 89 W 6 9 29.67 1005 10 16.0934 0 0
5:55 am 05:55 Clear 52 11.2 49 9.6 90 90 W 7 11 29.67 1005 10 16.0934 0 0
6:15 am 06:15 Clear 52 11.1 49 9.5 90 90 W 5 7 29.67 1005 10 16.0934 0 0
6:35 am 06:35 Clear 53 11.7 50 10 89 89 WNW 8 13 29.68 1005 10 16.0934 0 0
6:55 am 06:55 Clear 54 12 50 10.1 88 88 WNW 8 13 29.67 1005 10 16.0934 0 0
7:15 am 07:15 Clear 53 11.6 50 10 90 90 WNW 6 9 29.68 1005 10 16.0934 0 0
7:35 am 07:35 Sunny 53 11.4 49 9.7 89 89 WSW 3 6 29.67 1005 10 16.0934 0 0
7:55 am 07:55 Sunny 53 11.5 49 9.6 88 88 SSW 5 7 29.67 1005 10 16.0934 0 0
8:15 am 08:15 Sunny 53 11.4 49 9.6 89 89 Calm 29.67 1005 10 16.0934 0 0
8:35 am 08:35 Sunny 54 12 50 10 88 88 SW 3 6 29.66 1005 10 16.0934 0 0
8:55 am 08:55 Partly Cloudy 56 13.1 51 10.5 84 84 Calm 29.65 1004 10 16.0934 0 0
9:15 am 09:15 Mostly Cloudy 58 14.2 51 10.7 80 80 W 3 6 29.64 1004 10 16.0934 0 0
9:35 am 09:35 Cloudy 58 14.7 52 11.1 79 79 Calm 29.64 1004 10 16.0934 0 0
9:55 am 09:55 Cloudy 59 15.1 52 11.3 78 78 WSW 3 6 29.64 1004 10 16.0934 0 0
10:15 am 10:15 Partly Cloudy 61 15.9 53 11.6 76 76 Calm 29.63 1003 10 16.0934 0 0
10:35 am 10:35 Partly Cloudy 63 17.2 53 11.6 70 70 WSW 3 6 29.62 1003 10 16.0934 0 0
10:55 am 10:55 Sunny 69 20.4 53 11.5 57 57 W 6 9 29.59 1002 10 16.0934 0 0
11:15 am 11:15 Sunny 71 21.8 52 11.1 51 51 W 6 9 29.58 1002 10 16.0934 0 0
11:35 am 11:35 Sunny 73 22.9 51 10.7 46 46 WSW 6 9 29.57 1001 10 16.0934 0 0
11:55 am 11:55 Sunny 78 25.4 49 9.4 36 36 W 8 13 29.55 1001 10 16.0934 0 0
12:15 pm 12:15 Sunny 82 27.5 48 9.1 31 31 W 9 15 29.52 1000 10 16.0934 0 0
12:35 pm 12:35 Sunny 89 31.8 42 5.7 19 19 WNW 16 26 29.48 998 10 16.0934 0 0
12:55 pm 12:55 Sunny 91 33 41 4.9 17 17 WNW 13 20 29.47 998 10 16.0934 0 0
1:15 pm 13:15 Sunny 93 33.7 36 2.2 14 14 NW 20 31 29.46 998 10 16.0934 0 0
1:35 pm 13:35 Sunny 92 33.5 37 2.5 14 14 NW 18 30 29.46 998 10 16.0934 0 0
1:55 pm 13:55 Sunny 92 33.5 35 1.8 13 13 WNW 15 24 29.45 997 10 16.0934 0 0
2:15 pm 14:15 Sunny 91 32.8 38 3.3 15 15 WNW 12 19 29.46 998 10 16.0934 0 0
2:35 pm 14:35 Sunny 91 33 37 2.9 15 15 NW 9 15 29.46 998 10 16.0934 0 0
2:55 pm 14:55 Sunny 90 32.4 39 3.7 16 16 NW 6 9 29.45 997 10 16.0934 0 0
3:15 pm 15:15 Sunny 91 32.5 36 2.3 15 15 W 7 11 29.45 997 10 16.0934 0 0
3:35 pm 15:35 Sunny 92 33.3 37 2.8 14 14 WNW 10 17 29.45 997 10 16.0934 0 0
3:55 pm 15:55 Sunny 92 33.1 38 3.4 15 15 WNW 10 17 29.45 997 10 16.0934 0 0
4:15 pm 16:15 Sunny 92 33.4 38 3.5 15 15 W 10 17 29.45 997 10 16.0934 0 0
4:35 pm 16:35 Sunny 90 32.4 38 3.4 16 16 WNW 13 20 29.47 998 10 16.0934 0 0
4:55 pm 16:55 Sunny 89 31.5 41 4.9 19 19 W 8 13 29.48 998 10 16.0934 0 0
5:15 pm 17:15 Sunny 87 30.5 40 4.4 19 19 WNW 6 9 29.49 999 10 16.0934 0 0
5:35 pm 17:35 Sunny 85 29.2 43 6.2 23 23 W 7 11 29.51 999 7 11.26538 0 0
5:55 pm 17:55 Partly Cloudy 83 28.1 43 6.1 25 25 WSW 5 7 29.52 1000 7 11.26538 0 0
6:15 pm 18:15 Partly Cloudy 81 27.4 42 5.3 24 24 N 13 20 29.55 1001 7 11.26538 0 0
6:35 pm 18:35 Partly Cloudy 78 25.6 41 4.9 26 26 N 17 28 29.56 1001 10 16.0934 0 0
6:55 pm 18:55 Partly Cloudy 77 25.1 41 4.9 27 27 NNE 16 26 29.56 1001 10 16.0934 0 0
7:15 pm 19:15 Sunny 76 24.5 42 5.4 29 29 NNE 3 6 29.62 1003 10 16.0934 0 0
7:35 pm 19:35 Clear 75 24 42 5.5 30 30 NNE 3 6 29.65 1004 10 16.0934 0 0
7:55 pm 19:55 Clear 74 23.3 42 5.7 32 32 E 7 11 29.64 1004 10 16.0934 0 0
8:15 pm 20:15 Clear 72 22.4 43 6 35 35 NNE 12 19 29.63 1003 10 16.0934 0 0
8:35 pm 20:35 Clear 73 22.5 42 5.7 34 34 NNE 15 24 29.66 1004 10 16.0934 0 0
8:55 pm 20:55 Clear 70 20.9 45 7.1 41 41 NNE 16 26 29.72 1006 10 16.0934 0 0
9:15 pm 21:15 Clear 67 19.6 46 7.5 46 46 NNE 14 22 29.75 1007 10 16.0934 0 0
9:35 pm 21:35 Clear 66 18.7 46 7.5 48 48 N 8 13 29.77 1008 10 16.0934 0 0
9:55 pm 21:55 Clear 64 17.5 46 7.6 52 52 N 7 11 29.78 1009 10 16.0934 0 0
10:15 pm 22:15 Clear 62 16.6 46 7.6 56 56 N 6 9 29.79 1009 10 16.0934 0 0
10:35 pm 22:35 Clear 61 16 46 7.6 58 58 N 3 6 29.8 1009 10 16.0934 0 0
10:55 pm 22:55 Clear 60 15.4 46 7.8 61 61 Calm 29.81 1010 10 16.0934 0 0
11:15 pm 23:15 Clear 58 14.7 46 7.8 64 64 NNE 5 7 29.8 1009 10 16.0934 0 0
11:35 pm 23:35 Clear 58 14.5 46 7.9 65 65 N 3 6 29.8 1009 10 16.0934 0 0
11:55 pm 23:55 Clear 57 14.1 46 7.9 66 66 N 8 13 29.8 1009 10 16.0934 0 0

Powered by AerisWeather